TimeEDT,TemperatureF,Dew PointF,Humidity,Sea Level PressureIn,VisibilityMPH,Wind Direction,Wind SpeedMPH,Gust SpeedMPH,PrecipitationIn,Events,Conditions,WindDirDegrees,DateUTC
12:53 AM,61.0,57.0,87,29.93,2.5,East,8.1,-,0.21,Rain,Heavy Rain,90,2013-06-18 04:53:00
1:01 AM,60.8,57.2,88,29.95,4.0,NNE,6.9,-,0.02,Rain,Rain,20,2013-06-18 05:01:00
1:53 AM,61.0,57.0,87,29.89,8.0,ESE,11.5,-,0.09,Rain,Light Rain,110,2013-06-18 05:53:00
2:53 AM,61.0,57.0,87,29.90,3.0,ESE,4.6,-,0.17,Rain,Heavy Rain,110,2013-06-18 06:53:00
3:53 AM,61.0,57.0,87,29.88,10.0,Calm,Calm,-,0.03,,Scattered Clouds,0,2013-06-18 07:53:00
4:53 AM,60.1,57.0,90,29.89,10.0,Calm,Calm,-,N/A,,Clear,0,2013-06-18 08:53:00
5:23 AM,60.8,57.2,88,29.94,10.0,North,8.1,-,N/A,,Mostly Cloudy,10,2013-06-18 09:23:00
5:53 AM,61.0,55.9,83,29.91,10.0,North,3.5,-,N/A,,Partly Cloudy,360,2013-06-18 09:53:00
6:53 AM,61.0,57.0,87,29.92,10.0,Calm,Calm,-,N/A,,Scattered Clouds,0,2013-06-18 10:53:00
7:53 AM,62.1,57.9,86,29.93,10.0,North,3.5,-,N/A,,Partly Cloudy,350,2013-06-18 11:53:00
8:36 AM,64.4,57.2,77,29.95,10.0,Variable,4.6,-,N/A,,Partly Cloudy,0,2013-06-18 12:36:00
8:53 AM,63.0,57.9,84,29.94,10.0,ENE,4.6,-,N/A,,Mostly Cloudy,60,2013-06-18 12:53:00
9:53 AM,63.0,57.0,81,29.95,10.0,NNE,5.8,-,N/A,,Overcast,20,2013-06-18 13:53:00
10:07 AM,62.6,57.2,82,29.96,10.0,NNE,5.8,-,N/A,,Overcast,30,2013-06-18 14:07:00
10:53 AM,66.0,57.9,75,29.96,10.0,NE,6.9,-,N/A,,Scattered Clouds,50,2013-06-18 14:53:00
11:53 AM,69.1,59.0,70,29.96,10.0,North,5.8,-,N/A,,Partly Cloudy,10,2013-06-18 15:53:00
12:53 PM,69.1,57.9,68,29.96,10.0,NNE,10.4,-,N/A,,Mostly Cloudy,20,2013-06-18 16:53:00
1:53 PM,68.0,57.0,68,29.96,10.0,North,10.4,16.1,N/A,,Clear,360,2013-06-18 17:53:00
2:53 PM,68.0,55.0,63,29.96,10.0,NNE,10.4,16.1,N/A,,Clear,20,2013-06-18 18:53:00
3:53 PM,66.9,53.1,61,29.96,10.0,NNE,12.7,21.9,N/A,,Clear,20,2013-06-18 19:53:00
4:53 PM,64.9,52.0,63,29.96,10.0,NNE,10.4,25.3,N/A,,Clear,20,2013-06-18 20:53:00
5:53 PM,66.0,50.0,56,29.97,10.0,NNE,10.4,20.7,N/A,,Clear,30,2013-06-18 21:53:00
6:53 PM,64.9,48.0,54,29.97,10.0,NE,10.4,18.4,N/A,,Clear,50,2013-06-18 22:53:00
7:53 PM,64.0,45.0,50,29.99,10.0,ENE,9.2,-,N/A,,Clear,60,2013-06-18 23:53:00
8:53 PM,61.0,44.1,54,30.00,10.0,ENE,3.5,-,N/A,,Clear,60,2013-06-19 00:53:00
9:53 PM,59.0,45.0,60,30.01,10.0,Calm,Calm,-,N/A,,Clear,0,2013-06-19 01:53:00
10:53 PM,55.0,46.0,72,30.03,10.0,Calm,Calm,-,N/A,,Clear,0,2013-06-19 02:53:00
11:53 PM,52.0,46.9,83,30.04,10.0,Calm,Calm,-,N/A,,Clear,0,2013-06-19 03:53:00